Regional Weather Roundup
Issued by NWS

Home | Current Version | Previous Version | Graphics & Text | Print | Product List | Glossary Off
Versions: 1 2 3 4 5 6 7 8 9 10 11 12 13 14 15 16 17 18 19 20 21 22 23 24 25 26 27 28 29 30 31 32 33 34 35 36 37 38 39 40 41 42 43 44 45 46 47 48 49 50

000
ASUS45 KABQ 051410
RWRNM
NEW MEXICO REGIONAL WEATHER ROUNDUP
NATIONAL WEATHER SERVICE ALBUQUERQUE NM
800 AM MDT SAT SEP 05 2015

NOTE: "FAIR" MEANS FEW OR NO CLOUDS BELOW 12,000 FEET AGL WITH NO
       SIGNIFICANT WEATHER OR OBSTRUCTIONS TO VISION.

      THIS PRODUCT IS RELEASED AS TWO VERSIONS.  ONE VERSION NEAR
      THE TOP OF THE HOUR CONTAINING PRELIMINARY DATA FROM ALBUQUERQUE
      AND OTHER STATIONS.  A FINAL VERSION WITH ADDITIONAL DATA IS
      ISSUED ABOUT 10 MINUTES AFTER THE HOUR.

NMZ501-503-504-510>518-051500-
NORTHWEST PLATEAU/NORTHCENTRAL MOUNTAINS

CITY           SKY/WX    TMP DP  RH WIND       PRES   REMARKS
FARMINGTON     LGT RAIN  61  59  93 E5        30.15R
LOS ALAMOS     CLOUDY    58  53  85 CALM      30.28R
SANTA FE       MOSUNNY   58  55  90 N3        30.22R
TAOS           CLOUDY    55  46  71 CALM      30.30R
ANGEL FIRE     PTSUNNY   55  50  85 S3        30.34R

$$
NMZ402-403-502-505>509-051500-
WESTCENTRAL MOUNTAINS/SOUTHWEST MOUNTAINS

CITY           SKY/WX    TMP DP  RH WIND       PRES   REMARKS
GALLUP         PTSUNNY   58  55  90 S5        30.23R
GRANTS         PTSUNNY   58  56  94 CALM      30.26R
SILVER CITY      N/A     63  57  82 NE5       30.18R

$$
NMZ407-409-411-412-051500-
SOUTHERN DESERTS

CITY           SKY/WX    TMP DP  RH WIND       PRES   REMARKS
LORDSBURG      PTSUNNY   63  61  94 CALM      30.11R
DEMING         PTSUNNY   64  60  87 CALM      30.10S
LAS CRUCES     MOSUNNY   71  57  61 CALM      30.11R
HOLLOMAN AFB   PTSUNNY   68  57  68 NE3       30.06R
ALAMOGORDO     PTSUNNY   70  55  60 CALM      30.09R
T OR C         MOSUNNY   65  57  75 NW3       30.13R

$$
NMZ519>523-051500-
CENTRAL VALLEYS/CENTRAL HIGHLANDS

CITY           SKY/WX    TMP DP  RH WIND       PRES   REMARKS
ALBUQUERQUE    PTSUNNY   64  59  83 N3        30.18R
DOUBLE EAGLE   PTSUNNY   61  57  88 NW3       30.21R
MORIARTY ARPT  PTSUNNY   59  54  84 CALM      30.24R
CLINES CORNERS PTSUNNY   58  52  80 NW5       30.25R
BELEN          PTSUNNY   62  61  95 CALM      30.17R
SOCORRO        FAIR      66  59  79 N7        30.14R

$$
NMZ524>526-539-540-051500-
SOUTHCENTRAL MOUNTAINS

CITY           SKY/WX    TMP DP  RH WIND       PRES   REMARKS
RUIDOSO        PTSUNNY   59  55  88 NW3       30.27R

$$
NMZ527>531-051500-
NORTHEAST HIGHLANDS/NORTHEAST PLAINS

CITY           SKY/WX    TMP DP  RH WIND       PRES   REMARKS
LAS VEGAS      MOSUNNY   63  51  65 S9        30.24R
RATON          PTSUNNY   62  50  64 S6        30.18R
CLAYTON        MOSUNNY   69  54  58 SW9       30.11R

$$
NMZ532>537-051500-
EASTCENTRAL PLAINS

CITY           SKY/WX    TMP DP  RH WIND       PRES   REMARKS
TUCUMCARI      MOSUNNY   69  55  60 S6        30.08R
CANNON AFB     SUNNY     72  56  57 SW9       30.12R
CLOVIS AIRPORT SUNNY     72  55  56 SW10      30.13R

$$
NMZ028-029-538-051500-
SOUTHEAST PLAINS

CITY           SKY/WX    TMP DP  RH WIND       PRES   REMARKS
ROSWELL        SUNNY     72  55  55 CALM      30.07R
ARTESIA        SUNNY     72  55  56 SE7       30.07R
CARLSBAD       SUNNY     77  57  50 S7        30.04R
HOBBS          SUNNY     73  63  68 SE7       30.10R


$$



USA.gov is the U.S. government's official web portal to all federal, state and local government web resources and services.